Temperature
25 23 24 24 24 25 25 24 24 24 24 23 23 22 22 22 22 22 22 22 22 23 23 22 22 22 21 21 21 20 20 20 19 19 19 19 19 18 18 18 18 18 18 18
23 24 25 25 25 25 25 24 24 24 24 24 23 22 22 22 22 22 22 22 22 23 23 22 22 22 21 21 21 21 20 20 19 19 19 19 19 18 18 18 18 18 18 18
25 25 25 25 25 25 25 24 24 24 24 23 23 23 22 22 22 22 22 23 23 23 23 23 22 22 22 21 21 21 20 20 19 19 19 19 18 18 18 18 18 18 18 18
24 25 25 25 25 25 25 25 25 24 23 21 23 22 22 21 21 21 22 22 23 23 23 23 23 22 22 22 22 21 21 20 20 19 19 19 19 19 19 18 18 18 18 18
24 25 25 26 26 25 25 24 24 23 22 21 22 22 21 21 21 21 22 22 23 24 24 24 23 23 23 22 22 21 21 20 20 19 19 19 19 19 18 18 18 18 18 18
24 25 25 26 25 25 24 22 21 19 20 21 22 21 21 20 21 22 22 23 23 24 24 24 24 23 23 22 22 22 21 21 20 20 19 19 19 19 19 18 18 18 18 18
24 25 25 25 25 24 23 21 21 21 20 20 20 21 21 22 22 22 22 23 24 24 24 24 24 23 23 23 22 22 21 21 20 20 20 19 19 19 19 18 18 18 18 18
23 23 24 25 25 23 22 22 21 22 21 20 20 21 22 22 23 24 24 24 24 24 24 24 24 24 24 23 23 22 22 21 21 20 20 19 19 19 19 18 18 18 18 18
21 22 24 24 24 23 22 21 20 19 20 20 20 21 21 22 22 22 23 23 23 24 24 25 24 24 24 23 23 23 22 22 21 21 20 20 19 19 19 18 18 18 18 18
21 22 24 24 24 23 22 19 18 19 20 21 22 22 22 23 23 22 21 22 23 24 24 24 24 24 24 24 23 23 22 22 21 21 20 20 19 19 19 18 18 18 18 17
21 22 23 23 24 23 21 20 17 17 19 20 21 22 22 22 22 22 21 23 23 24 24 24 24 24 24 23 23 23 22 22 21 21 20 20 20 19 19 18 18 18 17 17
19 18 20 21 22 22 22 20 18 20 19 18 20 21 23 21 21 22 22 23 23 24 24 24 24 24 23 23 23 22 22 22 21 21 20 20 19 19 19 18 18 18 17 17
19 18 20 21 21 22 22 20 19 17 16 17 20 22 22 21 21 22 22 23 23 24 23 23 23 24 23 23 23 22 22 22 21 21 20 20 19 19 19 18 18 17 17 17
19 17 19 20 20 21 22 21 19 19 18 18 19 22 22 21 20 21 22 23 23 23 23 23 23 23 23 23 22 22 22 21 21 21 20 20 19 19 19 18 18 17 17 17
18 18 19 19 21 21 22 22 20 21 19 20 20 20 21 20 20 21 22 22 22 22 23 23 23 23 23 23 22 22 22 21 21 21 20 20 19 19 18 18 18 17 17 16
15 18 19 20 21 21 22 22 21 21 21 21 21 21 20 20 21 21 21 21 22 23 23 23 23 23 23 23 22 22 22 21 21 20 20 19 19 19 18 18 17 17 17 16
14 16 17 18 20 22 21 22 21 21 21 21 21 21 20 19 19 21 21 22 22 23 24 23 23 23 23 23 23 22 22 21 21 20 20 19 19 18 18 18 17 17 16 16
14 14 14 16 20 21 20 21 21 21 21 20 20 20 19 20 21 22 22 23 23 23 23 23 23 23 23 22 22 22 21 21 20 20 19 19 19 18 18 17 17 17 16 16
14 14 14 15 18 19 21 21 20 20 21 20 19 19 19 20 20 20 22 23 23 24 24 23 23 23 22 22 22 22 21 21 20 20 19 19 18 18 18 17 17 17 16 16
13 13 14 15 18 19 20 21 21 21 20 19 19 18 18 19 19 20 22 22 22 23 23 23 22 22 22 22 21 21 21 20 20 19 19 19 18 18 18 17 17 16 16 15
15 14 14 15 17 18 19 19 20 20 20 19 19 18 18 19 20 21 22 22 22 22 22 22 22 22 22 21 21 20 20 20 20 19 19 18 18 17 17 17 16 16 16 15
14 14 14 14 16 17 18 18 18 18 19 19 19 19 19 20 21 21 21 21 21 21 21 22 22 21 21 21 20 20 20 20 19 19 18 18 17 17 17 16 16 16 15 15
13 13 13 14 15 16 16 17 18 18 18 19 19 19 19 20 20 20 20 21 21 21 21 21 21 21 21 20 20 20 20 19 19 18 18 17 17 16 16 16 16 15 15 15
13 12 12 13 14 15 16 17 18 18 18 19 19 19 20 20 20 20 20 20 20 20 20 20 21 20 20 20 19 19 19 19 18 18 17 17 16 16 15 15 15 15 15 14
13 12 13 13 14 15 16 17 17 18 18 19 19 19 19 20 19 20 20 20 20 19 20 20 20 20 20 19 19 19 18 18 18 17 17 16 16 15 15 15 14 14 14 14
12 12 13 14 14 14 15 16 17 18 18 18 18 19 19 19 19 19 19 19 19 19 19 19 19 19 19 18 18 18 18 17 17 17 17 16 15 15 15 14 14 14 14 13
Wind_Speed
4 5 3 6 6 6 6 5 3 3 2 4 4 4 6 8 8 9 9 9 9 9 7 6 7 7 6 6 6 6 6 4 4 2 1 1 0 0 1 1 1 1 1 1
6 1 5 4 4 5 5 4 2 1 2 3 3 2 4 8 10 10 11 10 9 8 6 7 7 7 7 7 7 6 6 5 4 3 2 2 1 0 0 1 2 2 2 1
6 4 3 5 4 5 3 6 5 4 3 4 3 3 2 4 5 6 7 8 9 11 11 10 9 9 8 8 9 8 6 6 5 4 3 2 2 2 2 2 2 2 2 2
4 3 3 4 3 6 3 5 6 6 6 1 2 2 6 5 6 8 9 9 10 10 10 10 10 9 10 10 8 7 6 5 5 5 4 4 3 2 1 0 1 2 3 3
4 2 3 4 5 6 4 4 6 5 5 3 2 2 7 2 7 11 12 12 11 11 11 12 12 12 10 9 8 7 6 5 5 5 6 5 3 2 1 1 1 1 2 3
4 3 4 5 2 6 7 8 9 7 5 1 2 3 7 5 9 7 10 11 11 11 11 10 9 8 8 7 7 7 7 6 5 6 6 6 5 4 2 1 0 1 2 2
2 3 2 3 5 4 7 7 5 4 3 5 2 3 9 8 8 9 9 10 11 10 10 9 10 10 9 9 9 8 8 7 6 6 6 5 5 4 4 2 1 0 1 1
4 4 4 4 6 7 6 10 9 6 6 4 2 6 8 6 5 5 6 7 8 9 10 10 11 10 10 10 9 9 9 8 7 6 5 4 4 3 2 2 2 1 1 1
7 6 5 3 3 10 8 5 7 8 4 1 5 7 9 2 1 1 4 6 8 9 10 10 10 10 10 10 10 10 10 8 7 7 6 4 4 4 3 2 2 1 1 0
8 4 4 2 5 6 6 10 7 7 6 3 5 5 5 5 4 2 4 6 8 8 9 9 9 9 9 9 8 8 9 9 7 7 6 5 4 4 3 3 2 2 1 1
6 4 3 2 4 6 5 6 6 6 6 7 3 8 7 8 6 6 6 6 7 8 9 9 9 9 8 8 8 9 8 7 7 6 6 5 4 4 4 3 2 2 2 2
5 6 2 5 4 2 5 8 8 7 4 5 5 8 5 6 5 5 5 4 5 7 8 8 8 8 8 9 9 9 8 8 7 7 6 6 5 5 4 3 3 3 3 3
6 7 3 5 5 2 3 4 5 8 6 6 6 8 3 1 2 3 4 4 4 6 7 7 8 8 9 9 9 8 8 8 7 7 7 6 5 5 5 4 3 3 3 3
6 5 7 9 8 5 4 3 5 7 5 6 8 8 7 4 4 4 4 5 6 7 8 8 8 8 8 8 8 8 8 8 8 8 8 7 6 6 5 4 4 3 3 3
5 5 4 4 4 4 4 6 8 7 9 9 10 9 11 9 8 7 6 6 7 7 8 9 9 8 8 8 8 8 8 8 8 9 8 7 6 6 5 5 4 3 4 4
4 5 3 1 2 4 3 5 8 6 6 6 4 8 8 4 3 4 6 8 8 9 9 9 9 9 9 9 9 9 8 8 9 9 8 7 6 6 5 5 4 4 4 4
3 5 5 3 2 2 4 6 6 5 5 7 8 9 3 3 7 9 9 9 9 9 9 9 9 9 9 9 9 9 9 8 9 9 8 7 7 6 5 5 5 5 4 4
6 5 4 3 3 6 9 3 4 4 4 5 5 5 5 6 5 5 6 9 9 8 8 8 8 7 6 7 8 9 9 9 9 8 8 7 7 6 6 6 5 4 4 4
5 8 5 5 4 4 6 2 4 4 4 4 5 3 2 2 2 1 3 5 7 7 7 7 7 7 7 8 9 10 10 9 9 8 8 8 8 7 6 6 5 4 4 4
5 5 6 5 5 7 7 3 2 4 3 3 4 4 3 5 3 5 3 4 5 5 6 6 7 8 8 8 9 10 10 9 9 8 8 7 7 8 7 6 5 4 4 4
4 4 4 5 4 6 5 5 1 5 7 3 4 5 6 5 5 3 2 4 5 6 7 8 9 8 7 9 10 9 8 8 8 7 7 7 7 7 7 6 5 5 5 5
5 4 4 4 4 6 4 2 4 5 3 2 3 4 4 2 1 2 4 5 6 6 6 8 8 7 6 9 10 9 8 7 8 8 8 7 6 6 6 7 6 6 6 5
3 5 5 6 6 4 3 2 3 2 2 2 2 1 3 2 2 3 4 4 5 5 5 6 8 7 6 7 9 10 7 8 9 9 8 7 6 5 6 6 6 5 5 4
2 1 2 0 3 3 4 3 3 2 2 2 0 1 2 3 4 4 4 4 5 4 4 5 7 7 6 6 6 7 7 8 9 9 7 7 6 5 5 4 5 5 5 5
2 1 2 1 3 3 4 5 5 4 3 3 3 3 1 3 3 4 3 4 4 5 4 4 6 6 6 6 6 7 8 9 8 8 7 6 6 6 5 4 3 5 5 6
3 4 4 5 5 3 3 4 4 3 3 2 3 4 3 2 3 3 3 2 3 5 5 5 5 6 5 6 6 6 7 9 9 7 7 6 6 5 5 5 2 2 2 5
Wind_Direction
44 78 162 199 185 166 156 162 181 218 176 134 171 192 188 181 185 194 199 201 201 208 205 187 183 179 172 174 178 182 176 173 149 138 142 144 164 20 9 351 356 18 34 45
52 232 218 170 146 132 138 144 156 57 80 124 143 224 212 195 202 200 200 203 201 204 201 190 186 184 183 185 188 188 182 177 174 165 157 151 135 134 295 355 13 16 13 350
171 223 176 136 133 126 157 174 177 160 88 57 81 338 238 225 218 216 212 207 200 203 202 197 192 196 192 192 195 194 189 184 181 164 124 98 76 51 31 8 358 353 351 345
208 241 150 135 163 145 216 210 162 142 114 36 104 262 272 226 228 225 220 210 206 206 202 198 196 194 200 202 195 188 184 182 176 164 156 158 157 171 205 211 311 346 6 359
220 187 144 177 196 163 174 97 102 102 108 69 40 161 284 222 236 237 225 216 211 206 200 198 198 197 200 192 185 182 174 177 175 169 166 160 160 166 148 112 3 353 358 0
229 233 199 196 150 136 119 74 58 50 67 31 237 177 273 229 222 236 224 214 208 203 200 197 195 185 188 181 175 171 169 177 173 167 163 165 168 162 145 129 32 352 351 356
308 297 251 150 102 80 101 95 51 21 15 250 263 207 250 247 232 223 220 209 202 195 192 186 183 183 184 180 177 169 167 173 169 164 167 172 173 167 174 181 174 122 353 346
165 265 242 190 168 164 161 138 153 178 205 261 283 235 256 266 262 224 207 196 189 184 184 186 189 188 186 182 174 168 170 173 169 168 172 169 166 166 172 174 162 163 203 266
168 237 279 233 173 136 133 146 148 127 134 136 276 284 300 297 315 159 169 170 183 184 183 185 183 182 180 176 175 173 170 169 171 173 166 161 162 162 165 159 148 147 175 132
149 205 285 304 85 39 136 139 107 121 142 208 284 275 253 262 243 207 178 182 188 183 181 178 176 178 176 172 168 162 165 169 168 169 171 168 162 162 159 142 140 136 116 81
131 148 310 32 159 164 108 98 104 111 143 152 220 266 228 224 217 208 207 197 188 181 180 178 173 171 164 158 159 160 161 159 159 162 156 151 149 149 143 138 135 120 89 73
139 127 209 263 275 200 155 156 143 146 182 166 171 261 270 220 214 203 210 197 181 175 172 168 163 157 157 161 162 162 162 162 162 156 147 148 142 133 128 123 111 100 87 72
138 121 99 347 345 27 104 127 130 120 118 150 168 257 306 217 205 206 199 185 165 163 157 152 151 159 162 162 161 160 160 160 153 146 143 141 141 136 131 122 109 100 94 77
120 119 162 191 209 187 170 161 150 128 145 184 212 242 277 254 226 220 201 180 165 161 158 160 163 164 161 158 157 155 153 150 149 146 147 149 151 147 139 127 114 107 101 90
111 148 182 211 214 183 186 187 181 181 182 182 220 225 243 231 218 209 189 171 160 161 166 169 169 165 158 153 153 151 149 149 149 147 151 155 150 141 133 127 119 107 97 93
86 141 142 204 239 198 203 203 188 194 189 205 222 248 253 233 180 184 182 176 179 179 179 176 169 163 163 162 161 156 154 154 149 150 152 147 143 139 137 134 124 111 99 93
104 125 125 205 277 98 235 213 185 191 193 173 204 236 233 200 199 200 194 188 191 189 180 176 175 174 170 168 164 162 157 149 148 149 148 147 147 145 146 142 129 124 117 105
140 121 127 140 121 202 237 241 195 184 219 209 225 238 214 216 214 209 195 189 190 184 178 176 170 167 160 154 149 146 145 149 150 149 150 151 150 150 147 139 137 133 123 116
154 138 125 132 169 252 283 231 168 173 250 236 220 230 223 127 73 319 220 188 188 180 170 168 161 151 146 150 149 144 146 150 150 154 157 158 155 153 150 147 146 138 131 121
77 107 123 135 156 214 237 271 256 137 258 258 193 196 183 128 158 242 223 177 168 151 143 144 139 133 138 143 142 145 152 155 161 163 159 155 152 152 155 154 145 132 131 131
70 70 127 153 186 247 261 292 90 159 235 254 178 180 176 186 211 228 171 152 151 147 144 140 138 141 147 144 143 149 157 168 165 152 147 147 150 152 152 145 137 134 132 125
157 145 166 149 173 238 307 23 156 217 268 229 182 174 175 196 165 124 129 134 134 135 133 135 136 138 139 145 148 153 169 168 149 145 146 149 151 152 148 143 139 138 137 131
180 184 181 185 206 253 300 260 269 241 247 242 199 188 155 154 153 135 125 124 128 131 135 137 138 136 141 152 155 161 168 153 145 144 149 150 148 146 148 150 150 146 147 148
291 134 138 207 284 293 309 316 324 301 256 284 199 150 157 160 154 142 133 126 124 128 134 137 139 145 155 160 159 158 154 150 147 150 153 152 150 149 147 149 158 163 167 168
240 146 134 235 275 321 339 341 339 353 26 52 44 37 62 132 147 149 141 136 139 140 143 147 156 162 169 160 157 154 154 150 152 155 155 155 156 155 154 154 163 175 187 187
220 188 175 218 225 199 265 305 333 10 27 57 60 31 28 105 136 131 134 146 144 145 143 148 158 160 161 159 155 158 158 156 155 159 162 164 163 161 161 159 133 74 163 181
Height
1493 1500 1507 1505 1504 1506 1510 1517 1520 1517 1511 1516 1520 1521 1520 1520 1522 1524 1525 1527 1529 1531 1533 1536 1538 1540 1542 1543 1545 1546 1547 1549 1550 1550 1551 1552 1552 1552 1552 1552 1552 1552 1552 1552
1501 1504 1499 1498 1501 1504 1510 1517 1519 1516 1512 1516 1521 1522 1518 1519 1519 1520 1522 1524 1526 1529 1532 1534 1537 1539 1540 1542 1544 1545 1546 1548 1549 1550 1551 1552 1552 1552 1552 1552 1552 1552 1552 1552
1501 1499 1495 1498 1502 1506 1510 1514 1516 1518 1516 1517 1521 1526 1521 1518 1518 1519 1520 1522 1524 1526 1528 1531 1534 1537 1539 1540 1542 1544 1546 1547 1549 1550 1550 1551 1551 1551 1552 1552 1552 1552 1551 1551
1497 1494 1495 1498 1502 1503 1512 1505 1508 1513 1524 1533 1527 1543 1525 1519 1517 1516 1516 1518 1520 1522 1525 1528 1531 1534 1536 1538 1541 1543 1545 1546 1548 1549 1550 1550 1551 1551 1552 1552 1551 1551 1551 1551
1497 1494 1495 1499 1499 1499 1505 1503 1509 1515 1525 1535 1533 1540 1531 1520 1519 1513 1511 1513 1515 1518 1521 1525 1528 1531 1534 1537 1539 1541 1543 1545 1547 1548 1549 1550 1550 1551 1551 1551 1551 1551 1551 1550
1493 1491 1491 1493 1493 1495 1501 1509 1517 1526 1534 1546 1536 1541 1535 1521 1512 1507 1506 1508 1511 1514 1518 1522 1525 1529 1532 1535 1537 1539 1542 1544 1545 1547 1548 1549 1550 1550 1550 1551 1551 1551 1550 1550
1497 1492 1489 1490 1496 1499 1503 1522 1545 1548 1556 1552 1537 1538 1530 1507 1503 1501 1502 1504 1507 1511 1514 1518 1522 1525 1529 1532 1535 1537 1540 1542 1544 1545 1547 1548 1549 1549 1550 1550 1550 1550 1550 1549
1507 1509 1492 1489 1493 1501 1505 1515 1541 1554 1557 1551 1538 1538 1516 1500 1497 1497 1498 1501 1504 1507 1511 1515 1519 1522 1526 1529 1532 1535 1538 1540 1542 1544 1545 1547 1548 1548 1549 1549 1549 1549 1549 1548
1508 1507 1489 1487 1487 1493 1507 1514 1517 1538 1545 1550 1543 1529 1509 1497 1496 1496 1498 1499 1501 1504 1508 1512 1516 1520 1523 1526 1530 1533 1536 1538 1541 1543 1544 1545 1547 1547 1548 1548 1548 1548 1548 1547
1495 1503 1492 1488 1487 1492 1497 1508 1524 1538 1552 1553 1541 1532 1522 1503 1498 1497 1497 1498 1499 1502 1505 1509 1513 1517 1521 1524 1528 1531 1534 1537 1539 1542 1543 1544 1546 1546 1547 1547 1547 1547 1547 1546
1489 1500 1498 1493 1494 1499 1503 1511 1521 1533 1535 1550 1549 1534 1501 1497 1495 1495 1495 1496 1497 1499 1503 1507 1510 1515 1519 1523 1526 1529 1532 1535 1538 1540 1542 1544 1545 1545 1546 1546 1546 1546 1546 1546
1489 1501 1508 1499 1490 1489 1492 1502 1513 1527 1536 1539 1540 1528 1491 1491 1491 1492 1493 1494 1496 1498 1501 1505 1509 1513 1517 1520 1524 1527 1531 1533 1536 1539 1541 1542 1544 1544 1545 1545 1545 1545 1545 1545
1487 1501 1514 1511 1506 1496 1496 1500 1505 1515 1530 1539 1538 1521 1490 1489 1490 1491 1492 1493 1494 1497 1500 1504 1507 1511 1514 1518 1522 1525 1529 1532 1535 1537 1540 1541 1543 1543 1544 1544 1545 1545 1544 1544
1480 1497 1507 1513 1508 1499 1499 1500 1504 1510 1526 1531 1524 1510 1494 1491 1490 1489 1490 1492 1493 1496 1499 1502 1506 1509 1513 1517 1520 1524 1527 1530 1533 1536 1538 1540 1541 1542 1543 1543 1544 1544 1544 1544
1480 1495 1495 1495 1491 1492 1492 1495 1499 1501 1507 1514 1509 1505 1492 1487 1487 1487 1488 1490 1493 1495 1498 1501 1504 1507 1511 1515 1518 1522 1525 1528 1531 1534 1536 1538 1540 1541 1542 1542 1543 1543 1543 1543
1484 1492 1494 1494 1491 1490 1491 1490 1493 1494 1497 1499 1498 1497 1484 1483 1485 1486 1487 1489 1491 1493 1496 1499 1502 1506 1509 1513 1516 1520 1524 1527 1530 1532 1535 1537 1538 1540 1541 1542 1542 1543 1543 1543
1488 1492 1500 1503 1494 1491 1498 1489 1489 1490 1489 1491 1495 1488 1482 1483 1482 1482 1484 1486 1488 1491 1494 1497 1500 1504 1507 1511 1514 1518 1522 1525 1528 1531 1533 1535 1537 1538 1539 1540 1541 1542 1542 1542
1487 1494 1503 1506 1500 1509 1493 1480 1480 1483 1483 1483 1482 1480 1479 1478 1479 1480 1482 1484 1486 1489 1492 1496 1499 1503 1506 1510 1513 1517 1521 1524 1527 1529 1531 1533 1535 1537 1538 1539 1540 1541 1541 1542
1480 1489 1502 1509 1508 1500 1486 1478 1479 1483 1483 1479 1479 1478 1478 1478 1480 1481 1481 1483 1485 1488 1492 1495 1498 1501 1505 1509 1512 1515 1519 1522 1525 1527 1529 1531 1533 1535 1536 1537 1539 1539 1540 1541
1482 1484 1497 1505 1506 1506 1487 1475 1474 1478 1485 1476 1476 1477 1478 1478 1484 1480 1479 1481 1484 1488 1491 1493 1496 1500 1503 1507 1511 1514 1517 1520 1523 1525 1528 1530 1531 1533 1534 1536 1537 1538 1539 1540
1489 1492 1497 1501 1501 1493 1479 1474 1474 1489 1485 1474 1473 1474 1476 1477 1477 1477 1477 1480 1483 1486 1489 1492 1495 1499 1502 1505 1509 1512 1515 1518 1521 1524 1526 1528 1530 1531 1533 1534 1535 1537 1538 1538
1489 1494 1498 1499 1500 1495 1476 1474 1478 1479 1473 1472 1471 1472 1474 1474 1475 1475 1476 1479 1482 1485 1488 1491 1494 1497 1501 1504 1507 1510 1513 1517 1519 1522 1524 1526 1528 1529 1531 1532 1533 1535 1536 1537
1485 1485 1487 1488 1488 1479 1475 1475 1474 1473 1472 1471 1471 1471 1473 1474 1474 1475 1476 1478 1481 1484 1487 1491 1494 1497 1500 1503 1506 1508 1511 1515 1517 1519 1521 1524 1526 1527 1529 1530 1531 1532 1534 1535
1481 1480 1482 1483 1479 1476 1475 1474 1472 1471 1470 1470 1470 1471 1472 1472 1473 1475 1476 1478 1480 1483 1486 1489 1493 1496 1499 1501 1504 1506 1510 1513 1515 1517 1519 1521 1523 1525 1526 1528 1529 1530 1532 1533
1480 1479 1481 1481 1477 1474 1472 1472 1471 1470 1470 1470 1470 1471 1472 1472 1474 1475 1476 1478 1480 1482 1486 1489 1491 1494 1497 1499 1502 1505 1508 1511 1513 1515 1517 1519 1521 1523 1524 1525 1527 1528 1530 1531
1477 1478 1479 1478 1474 1474 1473 1472 1471 1470 1470 1470 1470 1470 1471 1473 1474 1475 1477 1478 1480 1482 1485 1487 1490 1492 1494 1497 1500 1503 1505 1508 1510 1512 1514 1516 1518 1520 1521 1523 1524 1526 1528 1529